TimeCET,TemperatureF,Dew PointF,Humidity,Sea Level PressureIn,VisibilityMPH,Wind Direction,Wind SpeedMPH,Gust SpeedMPH,PrecipitationIn,Events,Conditions,WindDirDegrees,DateUTC
12:00 AM,38,36,92,30.36,11,Calm,Calm,,,,Mostly Cloudy,,2013-11-30 23:00:00
12:20 AM,37.4,37.4,100,30.33,6.2,NE,1.2,-,N/A,,Mostly Cloudy,40,2013-11-30 23:20:00
12:50 AM,37.4,37.4,100,30.33,6.2,SW,1.2,-,N/A,,Mostly Cloudy,230,2013-11-30 23:50:00
1:00 AM,37,36,93,30.37,11,SW,2.2,,,,Partly Cloudy,230,2013-12-01 00:00:00
1:20 AM,35.6,35.6,100,30.33,6.2,Variable,1.2,-,N/A,,Scattered Clouds,0,2013-12-01 00:20:00
1:50 AM,35.6,35.6,100,30.33,6.2,SSE,2.3,-,N/A,,Mostly Cloudy,150,2013-12-01 00:50:00
2:00 AM,35,34,92,30.36,10,SSE,2.2,,,,Mostly Cloudy,150,2013-12-01 01:00:00
2:20 AM,33.8,33.8,100,30.33,6.2,Variable,1.2,-,N/A,,Mostly Cloudy,0,2013-12-01 01:20:00
2:50 AM,33.8,33.8,100,30.36,6.2,SSE,1.2,-,N/A,,Mostly Cloudy,160,2013-12-01 01:50:00
3:00 AM,34,33,94,30.38,10,SSE,2.2,,,,Mostly Cloudy,160,2013-12-01 02:00:00
3:20 AM,35.6,35.6,100,30.36,6.2,Variable,1.2,-,N/A,,Mostly Cloudy,0,2013-12-01 02:20:00
3:50 AM,35.6,35.6,100,30.36,6.2,Variable,1.2,-,N/A,,Mostly Cloudy,0,2013-12-01 02:50:00
4:20 AM,35.6,35.6,100,30.36,6.2,SSE,1.2,-,N/A,,Mostly Cloudy,150,2013-12-01 03:20:00
4:50 AM,35.6,35.6,100,30.33,6.2,Calm,Calm,-,N/A,,Mostly Cloudy,0,2013-12-01 03:50:00
5:00 AM,36,35,95,30.37,10,Calm,Calm,,,,Mostly Cloudy,,2013-12-01 04:00:00
5:20 AM,37.4,37.4,100,30.36,6.2,SSW,4.6,-,N/A,,Mostly Cloudy,210,2013-12-01 04:20:00
5:50 AM,37.4,37.4,100,30.36,6.2,Variable,3.5,-,N/A,,Mostly Cloudy,0,2013-12-01 04:50:00
6:00 AM,38,35,86,30.38,10,SSW,4.5,,,,Mostly Cloudy,210,2013-12-01 05:00:00
6:20 AM,37.4,37.4,100,30.36,6.2,South,3.5,-,N/A,,Mostly Cloudy,170,2013-12-01 05:20:00
6:50 AM,37.4,37.4,100,30.36,6.2,South,4.6,-,N/A,,Mostly Cloudy,190,2013-12-01 05:50:00
7:00 AM,37,35,92,30.39,9,South,4.5,,,,Mostly Cloudy,190,2013-12-01 06:00:00
7:20 AM,37.4,37.4,100,30.39,6.2,NW,1.2,-,N/A,,Scattered Clouds,320,2013-12-01 06:20:00
7:50 AM,35.6,35.6,100,30.39,6.2,ENE,1.2,-,N/A,,Partly Cloudy,60,2013-12-01 06:50:00
8:00 AM,36,35,93,30.40,7,ENE,2.2,,,,Scattered Clouds,60,2013-12-01 07:00:00
8:20 AM,35.6,35.6,100,30.39,6.2,NE,1.2,-,N/A,,Scattered Clouds,50,2013-12-01 07:20:00
8:50 AM,35.6,35.6,100,30.39,6.2,Variable,1.2,-,N/A,,Mostly Cloudy,0,2013-12-01 07:50:00
9:00 AM,36,35,93,30.43,7,Calm,Calm,,,,Scattered Clouds,,2013-12-01 08:00:00
9:20 AM,39.2,39.2,100,30.39,6.2,East,3.5,-,N/A,,Mostly Cloudy,100,2013-12-01 08:20:00
9:50 AM,39.2,37.4,93,30.42,6.2,NNE,3.5,-,N/A,,Mostly Cloudy,30,2013-12-01 08:50:00
10:20 AM,41.0,39.2,93,30.42,6.2,ENE,2.3,-,N/A,,Mostly Cloudy,60,2013-12-01 09:20:00
10:50 AM,41.0,37.4,87,30.42,6.2,NE,2.3,-,N/A,,Mostly Cloudy,40,2013-12-01 09:50:00
11:00 AM,41,36,78,30.45,11,NE,2.2,,,,Mostly Cloudy,40,2013-12-01 10:00:00
11:20 AM,42.8,37.4,81,30.42,6.2,North,1.2,-,N/A,,Mostly Cloudy,350,2013-12-01 10:20:00
11:50 AM,44.6,39.2,81,30.42,6.2,Variable,3.5,-,N/A,,Scattered Clouds,0,2013-12-01 10:50:00
12:00 PM,44,38,74,30.43,11,WSW,4.5,,,,Partly Cloudy,250,2013-12-01 11:00:00
12:20 PM,44.6,37.4,76,30.39,6.2,West,2.3,-,N/A,,Partly Cloudy,260,2013-12-01 11:20:00
12:50 PM,46.4,37.4,71,30.39,6.2,WNW,4.6,-,N/A,,Partly Cloudy,290,2013-12-01 11:50:00
1:00 PM,46,38,64,30.42,13,WNW,4.5,,,,Scattered Clouds,290,2013-12-01 12:00:00
1:20 PM,46.4,35.6,66,30.39,6.2,North,1.2,-,N/A,,Scattered Clouds,10,2013-12-01 12:20:00
1:50 PM,46.4,35.6,66,30.39,6.2,NNE,1.2,-,N/A,,Mostly Cloudy,20,2013-12-01 12:50:00
2:00 PM,46,36,58,30.42,14,NNE,2.2,,,,Mostly Cloudy,30,2013-12-01 13:00:00
2:20 PM,46.4,37.4,71,30.39,6.2,NW,3.5,-,N/A,,Mostly Cloudy,310,2013-12-01 13:20:00
2:50 PM,44.6,37.4,76,30.39,6.2,North,2.3,-,N/A,,Mostly Cloudy,350,2013-12-01 13:50:00
3:00 PM,45,37,64,30.41,14,North,2.2,,,,Mostly Cloudy,350,2013-12-01 14:00:00
3:20 PM,44.6,35.6,71,30.39,6.2,North,5.8,-,N/A,,Mostly Cloudy,10,2013-12-01 14:20:00
3:50 PM,44.6,35.6,71,30.39,6.2,NNW,3.5,-,N/A,,Mostly Cloudy,340,2013-12-01 14:50:00
4:20 PM,44.6,35.6,71,30.39,6.2,WNW,2.3,-,N/A,,Mostly Cloudy,300,2013-12-01 15:20:00
4:50 PM,44.6,37.4,76,30.39,6.2,NW,3.5,-,N/A,,Mostly Cloudy,310,2013-12-01 15:50:00
5:00 PM,44,37,67,30.41,14,NW,2.2,,,,Mostly Cloudy,310,2013-12-01 16:00:00
5:20 PM,44.6,37.4,76,30.39,6.2,NW,3.5,-,N/A,,Mostly Cloudy,320,2013-12-01 16:20:00
5:50 PM,44.6,37.4,76,30.42,6.2,North,4.6,-,N/A,,Mostly Cloudy,350,2013-12-01 16:50:00
6:00 PM,44,37,70,30.43,14,North,4.5,,,,Mostly Cloudy,350,2013-12-01 17:00:00
6:20 PM,44.6,37.4,76,30.42,6.2,Variable,1.2,-,N/A,,Mostly Cloudy,0,2013-12-01 17:20:00
6:50 PM,42.8,37.4,81,30.39,6.2,South,4.6,-,N/A,,Mostly Cloudy,170,2013-12-01 17:50:00
7:00 PM,43,37,72,30.43,16,South,4.5,,,,Mostly Cloudy,170,2013-12-01 18:00:00
7:20 PM,42.8,37.4,81,30.42,6.2,South,3.5,-,N/A,,Mostly Cloudy,190,2013-12-01 18:20:00
7:50 PM,42.8,37.4,81,30.42,6.2,SSW,4.6,-,N/A,,Mostly Cloudy,210,2013-12-01 18:50:00
8:00 PM,44,37,70,30.45,16,SSW,4.5,,,,Overcast,200,2013-12-01 19:00:00
8:20 PM,42.8,37.4,81,30.42,6.2,SSW,3.5,-,N/A,,Mostly Cloudy,200,2013-12-01 19:20:00
8:50 PM,42.8,37.4,81,30.42,6.2,Variable,2.3,-,N/A,,Mostly Cloudy,0,2013-12-01 19:50:00
9:00 PM,43,37,73,30.45,16,WSW,2.2,,,,Mostly Cloudy,240,2013-12-01 20:00:00
9:20 PM,42.8,37.4,81,30.42,6.2,WNW,1.2,-,N/A,,Mostly Cloudy,290,2013-12-01 20:20:00
9:50 PM,42.8,37.4,81,30.42,6.2,Variable,1.2,-,N/A,,Mostly Cloudy,0,2013-12-01 20:50:00
10:20 PM,42.8,37.4,81,30.42,6.2,East,2.3,-,N/A,,Mostly Cloudy,80,2013-12-01 21:20:00
10:50 PM,42.8,39.2,87,30.45,6.2,NE,1.2,-,N/A,,Mostly Cloudy,40,2013-12-01 21:50:00
11:00 PM,42,38,80,30.46,16,Calm,Calm,,,,Overcast,,2013-12-01 22:00:00
11:20 PM,41.0,39.2,93,30.45,6.2,West,1.2,-,N/A,,Mostly Cloudy,260,2013-12-01 22:20:00
11:50 PM,41.0,39.2,93,30.45,6.2,Variable,1.2,-,N/A,,Mostly Cloudy,0,2013-12-01 22:50:00